Regional Weather Roundup
Issued by NWS

Home | Current Version | Previous Version | Text Only | Print | Product List | Glossary Off
Versions: 1 2 3 4 5 6 7 8 9 10 11 12 13 14 15 16 17 18 19 20 21 22 23 24 25 26 27 28 29 30 31 32 33 34 35 36 37 38 39 40 41 42 43 44 45 46 47 48 49 50

000
ASUS43 KLOT 060621
RWRIL

ILLINOIS REGIONAL WEATHER ROUNDUP
NATIONAL WEATHER SERVICE CHICAGO/ROMEOVILLE IL
100 AM CDT MON JUL 06 2015

NOTE: "FAIR" INDICATES FEW OR NO CLOUDS BELOW 12,000 FEET WITH NO
SIGNIFICANT WEATHER AND/OR OBSTRUCTIONS TO VISIBILITY.

* THESE STATIONS ARE NOT UNDER NWS QUALITY CONTROL. THEY ALSO MAY NOT
  REPORT WEATHER SUCH AS PRECIPITATION OR FOG.

ILZ001-002-007-009-015-016-024-060700-
NORTHWEST ILLINOIS

CITY           SKY/WX    TMP DP  RH WIND       PRES   REMARKS
MOLINE         CLEAR     70  65  84 SE7       29.96R HAZE
6HR MIN TEMP:  70; 6HR MAX TEMP:  80;

STERLING*      CLEAR     68  64  88 CALM      29.98S
SAVANNA*       CLEAR     67  64  88 S6        29.96F
$$

ILZ003-004-008-010-011-017-018-060700-
NORTH CENTRAL ILLINOIS

CITY           SKY/WX    TMP DP  RH WIND       PRES   REMARKS
ROCKFORD       PTCLDY    66  62  87 S5        30.00R
6HR MIN TEMP:  65; 6HR MAX TEMP:  80;

FREEPORT*      CLEAR     64  62  93 S7        29.99S FOG
ROCHELLE*      CLEAR     65  63  94 S5        30.00S FOG
DE KALB*       CLEAR     62  60  93 S7        30.00S FOG
PERU*          CLEAR     70  64  81 S9        30.00S
$$

ILZ005-006-012>014-019>023-060700-
NORTHEAST ILLINOIS

CITY           SKY/WX    TMP DP  RH WIND       PRES   REMARKS
CHICAGO-OHARE  CLEAR     68  61  78 S6        29.99F
6HR MIN TEMP:  67; 6HR MAX TEMP:  79;

CHICAGO-MIDWAY CLEAR     74  63  68 S6        30.00S
6HR MIN TEMP:  74; 6HR MAX TEMP:  83;

AURORA         CLEAR     67  61  81 S6        30.00S HAZE
6HR MIN TEMP:  67; 6HR MAX TEMP:  79;

LANSING*       CLEAR     67  60  78 S5        30.02R
JOLIET*        CLEAR     66  64  94 CALM      30.01R FOG
WAUKEGAN       CLEAR     65  60  84 S7        29.98F
6HR MIN TEMP:  60; 6HR MAX TEMP:  73;

DUPAGE AIRPORT CLEAR     65  61  87 S7        29.99F
6HR MIN TEMP:  65; 6HR MAX TEMP:  78;

KANKAKEE*      CLEAR     67  65  91 S5        30.03S
WHEELING       CLEAR     66  60  81 S5        30.01S
6HR MIN TEMP:  66; 6HR MAX TEMP:  81;

MORRIS*        CLEAR     67  64  88 S5        29.99S
ROMEOVILLE*    CLEAR     67  62  84 S8        30.01S
NORTHERLY ISL    N/A     73  61  65 S7          N/A
$$

LMZ740>746-060700-
SOUTHERN LAKE MICHIGAN

STATION/POSITION SKY/WX   TEMP    WIND        PRES    VSBY  WAVE
                          AIR SEA DIR/SP/G                  HT/PER
                          (F)     (DEG/KT/KT) (MB)    (MI)  (FT/S)
HARRISON CRIB              71     180/ 10/ 11   N/A
BURNHAM HARBOR             73     170/  7/  8   N/A
CALUMET HARBOR             73     180/  3/  6   N/A
BURNS HARBOR               74     170/  6/ 12 1016.9F
MICHIGAN CITY              72     140/  8/ 11   N/A
MICHIGAN CITY 6N           69 67  180/  6/  8   N/A           0
ST. JOSEPH                 69 67                N/A           1
$$

ILZ025>027-034>036-040-047-049-050-058-095>099-060700-
WEST-CENTRAL ILLINOIS

CITY           SKY/WX    TMP DP  RH WIND       PRES   REMARKS
QUINCY         CLEAR     73  68  84 S8        29.97R HAZE
GALESBURG*     CLEAR     69  65  89 SE5       29.98F
MACOMB*        CLEAR     68  67  96 S3        30.01R FOG
JACKSONVILLE*  CLEAR     74  68  80 SE10      29.99R
PITTSFIELD*    CLEAR     72  68  87 S5        30.00S FOG
$$

ILZ028>032-037-038-041>044-048-051>054-059>061-060700-
CENTRAL ILLINOIS

CITY           SKY/WX    TMP DP  RH WIND       PRES   REMARKS
PONTIAC        CLEAR     66  65  96 S6        30.02S FOG
BLOOMINGTON    CLEAR     68  65  90 S6        30.04R
DECATUR        CLEAR     70  64  81 S6        30.02S
PEORIA         CLEAR     73  64  73 S7        30.00R
6HR MIN TEMP:  73; 6HR MAX TEMP:  82;

LACON*         CLEAR     68  64  85 S3        29.99R
LINCOLN*       CLEAR     68  64  87 CALM      30.02R FOG
SPRINGFIELD    CLEAR     73  65  75 S8        30.01R
6HR MIN TEMP:  73; 6HR MAX TEMP:  82;

TAYLORVILLE    CLEAR     68  64  88 SE6       30.02R
$$

ILZ033-039-045-046-055>057-062-063-060700-
EAST-CENTRAL ILLINOIS

CITY           SKY/WX    TMP DP  RH WIND       PRES   REMARKS
CHAMPAIGN      CLEAR     68  65  90 S5        30.03S FOG
DANVILLE*      CLEAR     68  67  95 SE5       30.00F FOG
RANTOUL*       CLEAR     67  66  96 CALM      30.03R FOG
MATTOON          N/A     70  68  93 S5        30.02F FOG
PARIS*         PTCLDY    69  68  97 SE5       30.04F FOG
$$

ILZ079-100>102-060700-
SOUTHWEST ILLINOIS

CITY           SKY/WX    TMP DP  RH WIND       PRES   REMARKS
ALTON          CLEAR     69  69 100 SE5       30.01S FOG
BELLEVILLE     CLEAR     71  70  97 CALM      29.99F
CAHOKIA*       CLEAR     73  68  84 SE5       30.00S HAZE
SPARTA*        CLEAR     72  67  83 S5        30.02S
$$

ILZ064>066-069>071-074>076-080>082-084>086-088>090-092>094-060700-
SOUTH-CENTRAL ILLINOIS

CITY           SKY/WX    TMP DP  RH WIND       PRES   REMARKS
CARBONDALE     CLEAR     70  68  93 CALM      30.02F FOG
6HR MIN TEMP:  70; 6HR MAX TEMP:  82;

CAIRO*         PTCLDY    75  73  91 S5        30.02F
EFFINGHAM*     CLEAR     68  65  90 CALM      30.04S FOG
MARION         CLEAR     72  70  94 CALM      30.03F FOG
MT. VERNON       N/A     64  59  82 CALM      30.03F VSB 1/4
CENTRALIA*     CLEAR     68  64  89 CALM      30.03S FOG
SALEM*         CLEAR     72  67  84 SE3       30.03S
$$

ILZ067-068-072-073-078-083-087-091-060700-
SOUTHEAST ILLINOIS

CITY           SKY/WX    TMP DP  RH WIND       PRES   REMARKS
LAWRENCEVILLE  CLEAR     71  68  90 SE5       30.04F FOG
FLORA*         CLEAR     68  67  97 CALM      30.04S FOG
FAIRFIELD*     CLEAR     69  69  99 CALM      30.02F FOG
HARRISBURG*    CLEAR     67  67 100 CALM      30.04S FOG
ROBINSON*      CLEAR     71  68  92 S5        30.04F
CARMI*         CLEAR     68  64  85 CALM      30.02F FOG
$$

ABBREVIATIONS USED IN REMARKS
   TC - TEMPERATURE IN CELSIUS
  WCI - WIND CHILL INDEX
   HX - HEAT INDEX
  VSB - VISIBILITY
$$




USA.gov is the U.S. government's official web portal to all federal, state and local government web resources and services.